Theta_e
343 342 345 344 341 341 342 344 344 345 346 345 346 346 347 347 347 346 345 345 346 348 347 348 347 347 348 349 349 349 349 350 350
341 342 344 344 342 342 341 341 342 345 345 345 345 347 347 349 348 347 346 345 346 347 348 348 347 347 348 348 347 348 349 349 348
345 342 343 343 343 343 341 341 341 343 343 343 346 346 347 346 347 346 347 347 346 346 347 347 346 345 347 348 347 347 348 350 348
340 344 342 342 343 343 344 342 342 342 343 344 346 346 346 346 346 348 348 347 346 346 347 346 345 345 345 346 346 348 347 349 350
344 345 341 341 343 343 344 344 344 343 344 345 344 344 345 346 346 348 348 347 347 347 346 346 345 345 346 347 346 347 347 347 348
344 344 340 341 344 344 343 344 346 346 346 346 346 345 345 346 347 348 348 347 347 346 346 346 346 346 347 347 347 346 347 346 346
343 346 345 344 344 343 343 344 347 347 346 346 347 349 349 348 348 348 347 346 348 347 346 347 347 346 347 346 347 347 348 348 349
345 348 346 346 347 344 342 342 344 346 346 346 346 346 346 347 347 347 346 346 347 349 348 348 348 347 348 348 348 348 347 349 349
343 346 347 345 346 343 342 341 341 343 345 344 344 343 344 344 345 346 345 345 346 347 348 348 348 348 348 349 348 348 348 347 346
340 342 343 344 345 343 343 343 343 342 342 341 341 342 342 342 343 343 343 344 343 344 345 346 347 347 346 345 344 345 345 344 344
341 341 341 342 342 342 343 343 342 341 341 340 337 339 339 339 344 343 341 344 343 343 343 343 343 343 342 342 343 343 343 342 343
339 341 339 340 341 340 340 342 341 340 340 340 338 339 341 341 342 342 343 339 343 342 342 341 341 341 342 342 342 342 342 338 339
341 338 337 337 338 337 339 341 341 340 338 338 341 340 342 342 342 342 342 342 341 342 340 339 337 336 337 339 339 340 340 339 337
337 336 334 334 334 335 338 339 341 340 339 338 338 338 338 340 341 342 341 340 340 340 338 335 332 331 329 330 332 334 337 336 337
335 335 334 334 334 334 337 339 338 338 337 338 338 338 338 337 338 340 341 339 334 333 332 329 326 325 325 326 327 329 332 335 336
335 333 333 333 333 333 334 335 337 336 335 337 336 336 335 334 334 334 333 333 330 328 327 325 323 322 323 324 325 327 329 330 331
334 333 332 333 333 333 333 334 336 336 335 334 334 333 333 332 333 331 331 331 329 328 326 325 324 322 322 321 323 324 325 325 325
333 333 333 333 332 332 332 334 334 334 334 333 332 331 330 328 328 328 327 327 327 328 328 328 327 325 321 322 321 320 320 320 319
331 331 332 332 332 332 332 332 332 332 332 332 330 328 325 324 323 321 320 316 313 313 315 319 326 327 319 322 320 319 319 318 317
330 330 331 331 331 331 331 330 330 330 330 329 329 326 322 318 317 316 315 314 314 312 312 314 321 318 320 322 321 321 321 320 319
Wind_Speed
8 15 13 13 16 20 21 27 30 31 32 32 30 32 27 21 19 15 16 12 8 10 15 12 9 8 8 7 6 5 2 3 4
4 12 15 16 16 23 25 24 32 34 33 32 31 33 29 23 20 18 16 13 10 8 11 11 11 10 12 11 8 6 6 5 4
4 5 8 11 16 22 28 31 32 32 33 33 34 35 32 27 23 21 19 16 14 13 12 12 12 11 9 10 9 10 10 13 8
6 6 8 8 12 22 26 29 30 35 32 32 33 32 33 27 25 23 20 19 16 15 15 15 12 12 11 10 10 10 10 10 10
6 7 8 9 13 19 20 27 26 29 28 30 31 33 31 28 24 23 22 20 19 16 15 13 11 12 11 11 12 11 11 9 11
7 6 4 6 7 13 19 18 23 25 27 27 29 32 29 28 25 22 22 22 21 18 16 14 12 13 13 11 11 13 12 12 12
6 4 1 3 5 8 14 17 20 23 24 23 24 27 30 27 24 22 21 20 21 20 20 18 16 14 13 13 14 13 13 13 14
5 2 2 3 4 5 13 13 12 14 15 15 16 15 15 17 19 19 18 16 18 19 19 19 19 19 17 15 14 14 15 14 14
4 0 1 5 5 7 11 17 13 11 15 13 11 11 8 7 12 16 12 11 14 16 18 18 17 17 16 14 12 12 13 12 10
3 3 4 6 9 10 11 16 16 15 15 14 15 14 13 11 9 7 5 3 4 9 12 15 14 13 12 10 6 5 4 3 6
3 4 5 4 5 4 6 12 18 19 18 18 16 13 10 12 12 10 9 7 7 8 7 10 11 11 10 7 4 2 0 2 4
4 2 2 9 12 10 10 10 17 19 16 16 15 15 14 13 14 13 12 11 9 10 12 13 11 9 7 4 4 5 4 2 3
6 5 8 10 12 10 13 11 13 12 10 5 4 17 15 12 14 15 14 14 16 13 12 13 12 10 7 5 4 5 5 6 8
7 8 9 9 12 17 11 4 14 18 13 8 8 5 3 3 10 10 11 12 16 16 15 15 13 11 8 4 2 2 6 7 7
6 10 11 11 15 14 10 5 10 16 14 9 8 8 9 11 9 10 13 16 15 17 17 16 16 14 13 11 7 4 3 6 7
5 10 12 9 12 14 11 11 16 20 17 17 19 19 20 21 19 18 17 20 18 18 18 19 17 16 15 14 12 10 8 6 6
6 7 12 12 12 14 13 12 14 16 17 17 18 20 20 19 21 20 20 20 19 19 19 17 14 12 12 12 12 13 13 12 11
9 9 13 14 13 12 12 11 12 12 13 14 16 16 17 17 19 20 20 20 17 15 13 12 12 10 10 11 14 14 14 14 15
13 13 13 14 14 14 11 12 12 11 11 12 15 16 15 16 17 18 20 21 18 16 12 9 9 10 7 11 15 16 15 13 12
15 14 15 14 13 11 9 9 9 9 11 11 13 14 13 13 15 16 17 17 17 18 14 12 11 9 10 12 15 13 11 10 10
Wind_Direction
215 204 189 192 190 184 199 201 205 208 218 223 226 227 219 222 224 223 222 226 254 250 233 251 255 264 258 255 248 259 260 290 318
241 198 195 190 192 198 195 200 203 207 215 220 221 219 218 221 231 229 224 225 246 247 231 238 261 261 258 249 244 259 259 268 286
301 211 195 198 186 187 191 200 208 208 215 217 222 213 221 223 225 229 231 233 236 234 235 249 249 260 260 244 244 265 276 262 246
270 251 213 203 200 193 189 197 202 209 217 218 220 221 222 223 225 227 231 237 239 238 233 237 245 261 263 248 242 249 270 266 249
302 262 221 192 182 196 194 194 199 207 209 219 226 231 225 224 225 228 230 239 241 236 235 235 239 249 247 249 236 251 255 269 260
315 311 219 168 159 186 197 195 196 204 208 215 219 226 228 226 220 221 229 235 234 232 234 238 247 246 250 251 241 251 262 264 265
318 348 93 142 152 172 178 180 187 194 201 213 224 225 222 218 219 220 226 231 237 241 241 243 247 242 242 249 254 261 263 264 266
329 328 107 160 150 164 135 147 170 182 198 202 198 192 196 199 211 216 222 230 236 240 246 248 251 250 249 245 249 255 261 266 265
307 217 174 181 141 176 151 154 160 165 164 174 185 199 192 188 210 211 213 222 232 239 242 242 240 238 236 230 236 250 266 273 271
301 310 217 194 175 174 167 177 195 190 188 184 192 202 213 216 211 194 157 192 225 239 234 229 226 226 217 212 220 241 234 282 282
206 288 311 180 163 159 206 203 204 200 204 197 187 187 200 217 198 177 158 126 109 125 159 158 147 136 133 132 125 153 157 298 310
148 137 117 74 96 116 106 178 185 191 188 197 205 203 205 202 206 197 189 181 146 138 143 147 147 153 172 194 216 236 259 277 311
114 118 78 80 93 84 82 100 155 151 142 183 206 202 184 195 199 199 190 188 182 169 160 153 152 146 152 178 196 212 224 242 241
113 83 79 89 89 78 63 106 134 128 133 100 96 102 121 173 177 169 161 171 179 170 164 149 136 123 115 116 132 179 199 196 223
100 98 70 63 70 75 98 121 146 111 105 128 132 150 141 135 132 147 153 148 144 144 139 126 113 105 92 80 79 80 140 166 187
75 92 97 98 88 82 90 107 133 119 123 118 115 113 109 104 107 108 112 116 122 124 128 123 119 109 94 78 76 81 81 106 124
114 128 111 112 99 86 80 86 100 111 116 116 113 107 105 108 107 108 111 115 122 126 127 126 124 113 106 100 94 89 93 98 104
138 127 119 123 113 104 103 103 105 112 114 120 115 112 114 115 116 116 115 115 116 121 130 137 138 131 119 113 109 106 102 101 101
144 133 131 123 124 121 112 113 112 112 120 127 127 124 123 123 125 125 123 117 107 108 109 119 137 135 120 126 127 120 111 100 97
144 141 144 139 133 124 119 116 119 124 130 137 137 133 131 131 130 127 124 122 122 114 100 100 115 120 126 136 137 127 114 110 115